�N����,����,�~����,�C��,���x,�C��,����,���ϕ���,�ő�u�ԕ���,�ő厞����,���˗�,�I�_���x,�n�����x,�ő啗���N��,DTYPE
"19/03/10","00:10",0.0,4.9,90.2,1017.3,280.6,1.5,2.4,304.4,0.00,3.5,8.8,"00:09:44",1
"19/03/10","00:20",0.0,4.7,89.6,1017.1,301.1,2.0,2.9,320.4,0.00,3.2,8.7,"00:19:04",1
"19/03/10","00:30",0.0,4.3,90.3,1017.1,295.1,1.6,3.1,323.0,0.00,2.9,8.7,"00:20:24",1
"19/03/10","00:40",0.0,4.3,91.1,1016.6,235.6,0.6,1.8,273.6,0.00,3.0,8.6,"00:39:52",1
"19/03/10","00:50",0.0,4.1,90.9,1017.1,315.7,2.1,2.7,315.8,0.00,2.8,8.7,"00:42:00",1
"19/03/10","01:00",0.0,3.9,90.9,1016.6,314.1,1.6,2.8,324.5,0.00,2.6,8.4,"00:51:12",1
"19/03/10","01:10",0.0,3.8,92.8,1016.6,293.4,1.3,2.1,318.4,0.00,2.8,8.4,"01:09:44",1
"19/03/10","01:20",0.0,4.0,91.7,1016.1,322.2,1.8,2.6,324.4,0.00,2.8,8.5,"01:19:28",1
"19/03/10","01:30",0.0,3.9,93.5,1016.4,296.9,1.6,2.2,316.1,0.00,3.0,8.1,"01:20:16",1
"19/03/10","01:40",0.0,4.5,92.9,1016.1,293.5,1.8,2.5,317.2,0.00,3.5,8.2,"01:38:00",1
"19/03/10","01:50",0.0,4.3,92.0,1016.1,314.6,2.0,2.8,323.9,0.00,3.2,8.3,"01:47:20",1
"19/03/10","02:00",0.0,3.9,92.7,1015.9,307.1,1.7,2.2,321.0,0.00,2.9,8.2,"01:56:24",1
"19/03/10","02:10",0.0,4.0,93.3,1015.9,314.8,1.8,2.5,320.7,0.00,3.1,8.2,"02:03:12",1
"19/03/10","02:20",0.0,3.9,93.5,1016.1,249.3,0.3,1.1,287.3,0.00,3.0,8.1,"02:12:00",1
"19/03/10","02:30",0.0,4.1,93.9,1016.1,328.0,1.8,3.3,316.2,0.00,3.2,8.0,"02:25:20",1
"19/03/10","02:40",0.0,4.0,93.8,1016.1,316.5,2.1,2.9,328.7,0.00,3.1,8.3,"02:32:08",1
"19/03/10","02:50",0.0,3.9,94.4,1015.9,285.0,1.3,1.7,310.1,0.00,3.1,8.1,"02:49:52",1
"19/03/10","03:00",0.0,4.1,94.1,1015.6,305.9,1.5,2.2,325.9,0.00,3.3,7.9,"02:56:16",1
"19/03/10","03:10",0.0,4.2,94.3,1015.4,299.8,2.0,2.5,313.6,0.00,3.4,8.2,"03:02:00",1
"19/03/10","03:20",0.0,4.4,94.4,1015.4,290.7,1.8,2.4,311.8,0.00,3.6,7.9,"03:10:02",1
"19/03/10","03:30",0.0,4.6,94.5,1015.2,299.5,1.6,2.4,321.9,0.00,3.8,8.2,"03:20:40",1
"19/03/10","03:40",0.0,4.5,93.9,1014.9,299.2,1.2,2.5,312.7,0.00,3.6,7.9,"03:30:40",1
"19/03/10","03:50",0.0,4.4,94.6,1014.5,305.9,1.7,2.2,319.3,0.00,3.7,7.8,"03:45:44",1
"19/03/10","04:00",0.0,4.2,94.3,1014.5,310.4,2.0,2.8,321.6,0.00,3.4,8.1,"03:51:36",1
"19/03/10","04:10",0.0,4.1,94.6,1014.5,258.5,0.6,1.2,265.2,0.00,3.4,8.0,"04:01:04",1
"19/03/10","04:20",0.0,4.1,94.6,1014.2,297.8,1.5,2.7,325.3,0.00,3.4,7.9,"04:10:02",1
"19/03/10","04:30",0.0,4.0,95.4,1014.5,322.9,2.1,3.2,327.4,0.00,3.4,7.8,"04:23:20",1
"19/03/10","04:40",0.0,3.9,95.0,1014.5,292.5,1.3,1.8,309.3,0.00,3.2,7.9,"04:37:36",1
"19/03/10","04:50",0.0,4.0,95.1,1014.5,293.0,1.2,2.6,320.2,0.00,3.3,7.9,"04:49:04",1
"19/03/10","05:00",0.0,4.1,95.5,1014.5,320.2,2.3,2.9,321.0,0.00,3.5,7.7,"04:57:52",1
"19/03/10","05:10",0.0,4.3,95.8,1014.7,295.9,1.5,1.9,305.0,0.00,3.7,7.7,"05:00:32",1
"19/03/10","05:20",0.0,4.4,95.5,1014.5,289.3,0.5,1.2,272.8,0.00,3.8,7.9,"05:13:20",1
"19/03/10","05:30",0.0,4.3,95.2,1014.7,308.2,2.2,2.8,319.7,0.00,3.6,7.7,"05:20:02",1
"19/03/10","05:40",0.0,4.5,95.9,1014.7,323.4,2.2,3.2,324.6,0.00,3.9,7.9,"05:30:56",1
"19/03/10","05:50",0.0,4.6,95.7,1014.9,289.3,1.3,2.1,310.1,0.00,4.0,8.0,"05:45:20",1
"19/03/10","06:00",0.0,4.5,95.8,1014.5,293.7,1.5,2.0,316.4,0.00,3.9,7.6,"05:50:02",1
"19/03/10","06:10",0.0,4.6,95.7,1014.5,307.9,1.6,2.7,324.2,0.00,4.0,7.9,"06:05:52",1
"19/03/10","06:20",0.0,4.4,95.9,1014.0,296.7,1.2,1.7,313.6,0.00,3.8,7.7,"06:18:32",1
"19/03/10","06:30",0.0,4.2,95.8,1014.5,308.2,1.8,2.5,324.7,0.00,3.6,7.9,"06:23:04",1
"19/03/10","06:40",0.0,4.0,95.7,1014.2,309.8,1.5,2.7,319.4,0.00,3.4,7.7,"06:34:32",1
"19/03/10","06:50",0.0,3.8,95.9,1014.5,278.8,1.0,1.8,306.4,0.00,3.2,7.8,"06:43:04",1
"19/03/10","07:00",0.0,4.1,96.7,1013.8,273.6,1.0,2.2,319.4,0.00,3.7,7.7,"06:59:12",1
"19/03/10","07:10",0.0,4.2,96.4,1013.5,317.8,2.0,2.8,320.6,0.00,3.7,7.8,"07:04:24",1
"19/03/10","07:20",0.0,4.3,96.5,1013.5,284.3,1.0,1.7,322.8,0.00,3.8,7.8,"07:10:08",1
"19/03/10","07:30",0.0,4.6,96.8,1013.8,292.9,1.6,2.2,315.6,0.01,4.2,7.7,"07:20:48",1
"19/03/10","07:40",0.0,4.9,96.7,1013.8,272.9,0.8,1.6,304.7,0.01,4.5,7.6,"07:34:00",1
"19/03/10","07:50",0.0,5.4,96.9,1013.5,272.8,0.8,1.4,281.2,0.03,5.0,7.8,"07:48:08",1
"19/03/10","08:00",0.0,5.9,96.5,1014.0,300.8,1.6,2.6,319.3,0.05,5.4,7.9,"07:55:12",1
"19/03/10","08:10",0.0,6.4,96.2,1013.8,308.5,1.2,2.4,320.1,0.06,5.9,7.9,"08:06:56",1
"19/03/10","08:20",0.0,7.0,95.7,1014.2,244.1,0.5,0.9,264.7,0.07,6.4,7.9,"08:10:08",1
"19/03/10","08:30",0.0,7.2,94.7,1014.0,328.0,1.5,2.6,343.1,0.08,6.4,8.0,"08:29:12",1
"19/03/10","08:40",0.0,7.5,94.0,1014.5,273.0,1.2,2.0,341.9,0.09,6.6,8.0,"08:30:24",1
"19/03/10","08:50",0.0,8.1,93.4,1014.5,266.2,0.7,1.2,287.8,0.11,7.1,8.1,"08:47:04",1
"19/03/10","09:00",0.0,8.5,90.1,1014.7,272.1,0.5,1.2,262.3,0.10,7.0,8.2,"08:57:28",1
"19/03/10","09:10",0.0,8.7,87.7,1014.5,311.6,2.0,2.7,320.6,0.11,6.8,8.4,"09:08:48",1
"19/03/10","09:20",0.0,9.4,83.6,1014.5,296.4,1.7,2.7,318.7,0.12,6.8,8.2,"09:10:16",1
"19/03/10","09:30",0.0,9.8,82.1,1014.7,306.2,1.8,2.9,326.7,0.11,6.9,8.5,"09:20:02",1
"19/03/10","09:40",0.0,9.9,80.5,1014.5,322.4,2.3,3.2,315.7,0.11,6.7,8.5,"09:32:00",1
"19/03/10","09:50",0.0,10.6,76.7,1014.2,305.4,1.6,2.5,327.2,0.13,6.7,8.7,"09:41:28",1
"19/03/10","10:00",0.0,11.3,73.1,1014.2,280.1,1.0,1.7,269.7,0.14,6.7,8.9,"09:51:52",1
"19/03/10","10:10",0.0,11.6,71.0,1014.2,276.9,0.6,1.4,306.9,0.13,6.6,9.0,"10:01:12",1
"19/03/10","10:20",0.0,11.8,69.7,1014.2,295.5,0.6,1.3,306.0,0.13,6.5,9.0,"10:17:36",1
"19/03/10","10:30",0.0,12.2,69.5,1014.2,282.9,0.6,1.3,297.6,0.13,6.8,9.2,"10:24:32",1
"19/03/10","10:40",0.0,12.4,69.0,1013.8,287.6,0.7,1.0,295.0,0.12,6.9,9.4,"10:34:40",1
"19/03/10","10:50",0.0,13.0,67.7,1013.8,296.7,0.8,1.2,299.2,0.11,7.2,9.4,"10:42:32",1
"19/03/10","11:00",0.0,12.9,68.2,1013.3,300.5,1.0,1.6,313.3,0.12,7.2,9.4,"10:55:44",1
"19/03/10","11:10",0.0,12.8,69.0,1013.3,251.0,0.6,1.2,249.1,0.12,7.3,9.5,"11:05:48",1
"19/03/10","11:20",0.0,12.8,70.6,1013.3,290.3,1.0,1.4,331.8,0.11,7.6,9.5,"11:17:12",1
"19/03/10","11:30",0.0,13.0,74.9,1013.0,99.2,1.0,2.2,118.4,0.11,8.7,9.8,"11:26:48",1
"19/03/10","11:40",0.0,12.2,80.0,1012.8,150.2,1.1,2.2,162.9,0.13,8.9,9.8,"11:35:04",1
"19/03/10","11:50",0.2,12.4,80.4,1012.3,125.9,1.2,2.5,127.3,0.11,9.2,9.9,"11:44:40",1
"19/03/10","12:00",0.0,12.5,81.8,1012.3,136.6,1.0,2.5,144.4,0.12,9.5,9.8,"11:54:56",1
"19/03/10","12:10",0.0,12.7,81.7,1011.9,133.3,0.8,1.7,127.8,0.08,9.7,9.9,"12:02:48",1
"19/03/10","12:20",0.0,12.6,81.9,1011.4,2.8,0.8,1.9,124.3,0.05,9.6,10.1,"12:11:52",1
"19/03/10","12:30",0.2,12.3,83.0,1011.4,116.2,0.7,1.9,116.8,0.03,9.5,10.1,"12:23:44",1
"19/03/10","12:40",0.0,12.4,84.3,1010.9,164.7,0.5,1.2,140.3,0.04,9.9,10.1,"12:32:32",1
"19/03/10","12:50",0.0,12.5,85.3,1010.9,153.1,0.6,1.2,175.1,0.08,10.1,10.0,"12:41:20",1
"19/03/10","13:00",0.0,12.6,85.3,1010.4,40.2,0.6,1.4,28.9,0.10,10.2,10.3,"12:52:56",1
"19/03/10","13:10",0.0,12.5,85.3,1010.4,165.2,0.6,1.6,237.0,0.14,10.1,10.2,"13:09:20",1
"19/03/10","13:20",0.0,12.7,85.0,1010.0,178.1,1.0,2.9,195.8,0.10,10.3,10.2,"13:10:40",1
"19/03/10","13:30",0.0,12.8,84.1,1010.0,144.7,0.8,1.8,19.9,0.08,10.2,10.3,"13:27:04",1
"19/03/10","13:40",0.0,12.6,84.4,1009.5,94.5,1.6,2.9,110.8,0.07,10.1,10.2,"13:36:48",1
"19/03/10","13:50",0.2,12.5,85.1,1009.3,119.6,1.5,3.5,110.5,0.07,10.1,10.6,"13:44:56",1
"19/03/10","14:00",0.0,12.2,86.0,1009.0,137.4,1.6,2.8,133.8,0.06,10.0,10.6,"13:50:24",1
"19/03/10","14:10",0.0,12.2,86.4,1008.6,154.8,1.5,2.9,195.9,0.07,10.0,10.4,"14:03:12",1
"19/03/10","14:20",0.0,12.2,86.6,1008.6,127.6,1.3,2.9,116.0,0.06,10.1,10.5,"14:11:52",1
"19/03/10","14:30",0.2,12.3,86.9,1008.3,146.6,0.7,1.8,156.4,0.05,10.2,10.6,"14:20:48",1
"19/03/10","14:40",0.0,12.3,86.9,1007.6,4.9,0.6,1.4,347.9,0.06,10.2,10.6,"14:35:12",1
"19/03/10","14:50",0.0,12.5,87.3,1007.6,318.5,0.6,1.8,149.6,0.05,10.5,10.6,"14:49:04",1
"19/03/10","15:00",0.0,12.4,87.1,1007.1,127.5,1.0,2.7,121.0,0.04,10.4,10.4,"14:55:04",1
"19/03/10","15:10",0.0,12.3,86.9,1007.4,138.0,1.3,3.3,115.4,0.04,10.2,10.7,"15:07:44",1
"19/03/10","15:20",0.0,12.2,86.8,1007.1,123.1,2.0,4.5,127.8,0.03,10.1,10.4,"15:10:48",1
"19/03/10","15:30",0.0,12.2,86.7,1006.9,132.6,1.6,3.6,137.5,0.03,10.1,10.5,"15:25:28",1
"19/03/10","15:40",0.0,12.2,87.0,1006.7,127.0,1.5,3.2,123.4,0.03,10.1,10.6,"15:31:28",1
"19/03/10","15:50",0.0,12.1,87.1,1006.4,120.6,2.6,4.7,130.7,0.04,10.1,10.5,"15:48:56",1
"19/03/10","16:00",0.0,12.1,86.9,1006.4,116.9,1.6,5.0,135.2,0.04,10.0,10.5,"15:50:32",1
"19/03/10","16:10",0.0,12.1,86.9,1005.5,106.6,1.6,3.9,110.5,0.01,10.0,10.5,"16:09:44",1
"19/03/10","16:20",0.0,12.1,86.9,1005.0,98.0,2.0,3.7,101.3,0.02,10.0,10.5,"16:18:48",1
"19/03/10","16:30",0.0,12.2,86.8,1005.0,110.7,1.8,4.5,116.7,0.01,10.1,10.5,"16:24:56",1
"19/03/10","16:40",0.0,12.2,86.7,1005.0,105.3,1.3,3.5,123.3,0.01,10.1,10.4,"16:38:00",1
"19/03/10","16:50",0.0,12.2,86.6,1004.8,86.9,1.1,3.1,118.1,0.00,10.1,10.6,"16:43:28",1
"19/03/10","17:00",0.2,12.2,86.6,1005.0,86.1,1.0,2.6,133.9,0.00,10.1,10.6,"16:52:16",1
"19/03/10","17:10",0.0,12.1,86.8,1004.8,69.5,0.7,2.1,41.0,0.00,10.0,10.5,"17:05:12",1
"19/03/10","17:20",0.2,12.0,87.4,1004.3,84.5,0.7,2.4,14.7,0.00,10.0,10.6,"17:14:16",1
"19/03/10","17:30",0.2,11.9,88.0,1004.3,80.2,0.8,3.4,139.5,0.00,10.0,10.5,"17:20:02",1
"19/03/10","17:40",0.0,11.9,88.5,1004.1,106.1,1.7,3.2,109.2,0.00,10.1,10.5,"17:38:24",1
"19/03/10","17:50",0.4,11.8,88.9,1003.6,81.4,0.8,2.5,113.9,0.00,10.1,10.4,"17:40:08",1
"19/03/10","18:00",0.0,11.6,89.3,1003.8,117.2,1.1,4.7,119.3,0.00,9.9,10.3,"17:58:56",1
"19/03/10","18:10",0.2,11.6,89.5,1003.8,103.2,1.0,3.2,118.5,0.00,10.0,10.4,"18:00:48",1
"19/03/10","18:20",0.2,11.6,89.8,1003.8,86.0,1.0,4.0,125.1,0.00,10.0,10.4,"18:12:48",1
"19/03/10","18:30",0.0,11.4,90.2,1003.1,333.0,0.7,1.3,348.6,0.00,9.9,10.4,"18:20:08",1
"19/03/10","18:40",0.2,11.4,90.7,1003.1,208.3,0.6,2.1,345.6,0.00,10.0,10.4,"18:35:04",1
"19/03/10","18:50",0.0,11.4,91.0,1003.1,135.6,1.1,2.1,105.1,0.00,10.0,10.3,"18:42:34",1
"19/03/10","19:00",0.4,11.4,91.2,1003.1,307.0,0.8,2.4,331.9,0.00,10.1,10.3,"18:53:44",1
"19/03/10","19:10",0.4,11.3,91.7,1002.9,298.2,1.0,1.6,336.2,0.00,10.0,10.3,"19:00:40",1
"19/03/10","19:20",0.2,11.3,92.1,1002.9,7.6,0.8,1.9,323.5,0.00,10.1,10.4,"19:10:32",1
"19/03/10","19:30",0.6,11.3,92.2,1002.9,46.5,0.8,1.9,341.4,0.00,10.1,10.1,"19:29:36",1
"19/03/10","19:40",0.4,11.3,92.5,1003.1,47.4,0.6,2.0,48.4,0.00,10.2,10.4,"19:30:24",1
"19/03/10","19:50",0.4,11.4,92.7,1002.4,119.1,1.2,3.6,131.9,0.00,10.3,10.3,"19:48:56",1
"19/03/10","20:00",0.6,11.4,92.7,1002.4,57.5,0.6,1.8,118.6,0.00,10.3,10.2,"19:52:00",1
"19/03/10","20:10",0.2,11.3,92.9,1002.6,114.7,0.6,1.8,120.4,0.00,10.2,10.1,"20:09:20",1
"19/03/10","20:20",0.4,11.3,93.2,1002.6,74.9,0.6,1.4,98.3,0.00,10.3,10.4,"20:10:56",1
"19/03/10","20:30",0.2,11.3,93.4,1002.4,331.1,0.6,1.1,312.3,0.00,10.3,10.2,"20:21:44",1
"19/03/10","20:40",0.4,11.2,93.5,1002.2,305.8,1.0,1.9,330.2,0.00,10.2,10.4,"20:30:02",1
"19/03/10","20:50",0.4,11.1,93.8,1002.2,350.1,1.2,2.4,338.4,0.00,10.2,10.2,"20:43:20",1
"19/03/10","21:00",0.4,11.0,93.9,1001.5,287.5,1.8,6.2,189.3,0.00,10.1,10.2,"20:56:32",1
"19/03/10","21:10",0.2,11.1,93.8,1001.5,6.9,1.0,2.2,162.9,0.00,10.2,10.1,"21:00:08",1
"19/03/10","21:20",0.2,11.0,93.8,1001.0,357.8,1.2,2.2,346.6,0.00,10.1,10.3,"21:14:40",1
"19/03/10","21:30",0.4,10.9,94.2,1001.0,338.1,1.3,2.0,335.0,0.00,10.0,10.2,"21:27:12",1
"19/03/10","21:40",0.2,10.8,94.5,1000.3,300.3,0.3,1.2,345.2,0.00,10.0,10.1,"21:30:24",1
"19/03/10","21:50",0.4,10.9,94.3,1000.5,72.8,1.2,3.2,126.4,0.00,10.1,10.2,"21:41:14",1
"19/03/10","22:00",0.2,11.0,94.2,1000.0,77.3,1.3,2.8,78.9,0.00,10.1,10.2,"21:55:46",1
"19/03/10","22:10",0.4,11.0,94.0,1000.0,71.1,1.3,3.5,94.7,0.00,10.1,10.1,"22:03:20",1
"19/03/10","22:20",0.2,11.1,93.8,999.6,88.6,1.3,3.1,98.3,0.00,10.2,10.2,"22:16:08",1
"19/03/10","22:30",0.4,11.1,93.6,999.3,82.8,1.1,2.4,109.4,0.00,10.1,10.1,"22:22:40",1
"19/03/10","22:40",0.4,11.1,93.6,999.1,92.4,1.0,2.5,104.0,0.00,10.1,10.3,"22:39:52",1
"19/03/10","22:50",0.4,11.1,93.5,998.9,100.3,1.3,3.6,113.4,0.00,10.1,10.3,"22:49:28",1
"19/03/10","23:00",0.4,11.1,93.3,997.9,121.3,1.3,4.1,122.5,0.00,10.1,10.2,"22:58:24",1
"19/03/10","23:10",0.4,11.2,92.9,998.2,85.5,1.3,4.5,117.7,0.00,10.1,10.0,"23:00:42",1
"19/03/10","23:20",0.2,11.2,92.7,997.7,51.5,0.7,2.6,107.4,0.00,10.1,10.0,"23:10:08",1
"19/03/10","23:30",0.2,11.1,92.7,997.4,97.3,1.8,4.7,116.8,0.00,10.0,10.2,"23:28:50",1
"19/03/10","23:40",0.4,11.2,92.4,996.7,111.8,2.3,5.0,158.1,0.00,10.1,10.2,"23:36:52",1
"19/03/10","23:50",0.8,11.2,92.3,997.0,88.9,1.6,4.2,117.5,0.00,10.0,10.0,"23:44:34",1
"19/03/10","24:00",0.6,11.1,92.3,996.5,107.1,1.2,4.5,132.0,0.00,9.9,9.8,"23:56:46",1
